Year,Month,Day,Hour,Minute,Value (Times are PST for temperature in C)
2014,05,14,00,00,13.60
2014,05,14,00,01,13.60
2014,05,14,00,02,13.60
2014,05,14,00,03,13.60
2014,05,14,00,04,13.60
2014,05,14,00,05,13.60
2014,05,14,00,06,13.70
2014,05,14,00,07,13.60
2014,05,14,00,08,13.60
2014,05,14,00,09,13.60
2014,05,14,00,10,13.60
2014,05,14,00,11,13.60
2014,05,14,00,12,13.60
2014,05,14,00,13,13.60
2014,05,14,00,14,13.60
2014,05,14,00,15,13.60
2014,05,14,00,16,13.60
2014,05,14,00,17,13.70
2014,05,14,00,18,13.80
2014,05,14,00,19,13.90
2014,05,14,00,20,14.00
2014,05,14,00,21,14.10
2014,05,14,00,22,14.20
2014,05,14,00,23,14.40
2014,05,14,00,24,14.50
2014,05,14,00,25,14.50
2014,05,14,00,26,14.60
2014,05,14,00,27,14.60
2014,05,14,00,28,14.70
2014,05,14,00,29,14.70
2014,05,14,00,30,14.70
2014,05,14,00,31,14.70
2014,05,14,00,32,14.80
2014,05,14,00,33,14.80
2014,05,14,00,34,14.80
2014,05,14,00,35,14.80
2014,05,14,00,36,14.70
2014,05,14,00,37,14.70
2014,05,14,00,38,14.70
2014,05,14,00,39,14.70
2014,05,14,00,40,14.70
2014,05,14,00,41,14.70
2014,05,14,00,42,14.80
2014,05,14,00,43,14.80
2014,05,14,00,44,14.80
2014,05,14,00,45,14.90
2014,05,14,00,46,14.90
2014,05,14,00,47,14.90
2014,05,14,00,48,14.90
2014,05,14,00,49,14.90
2014,05,14,00,50,14.90
2014,05,14,00,51,14.90
2014,05,14,00,52,15.00
2014,05,14,00,53,15.00
2014,05,14,00,54,15.00
2014,05,14,00,55,15.10
2014,05,14,00,56,15.10
2014,05,14,00,57,15.10
2014,05,14,00,58,15.10
2014,05,14,00,59,15.10
2014,05,14,01,00,15.10
2014,05,14,01,01,15.00
2014,05,14,01,02,14.90
2014,05,14,01,03,14.90
2014,05,14,01,04,14.80
2014,05,14,01,05,14.80
2014,05,14,01,06,14.70
2014,05,14,01,07,14.70
2014,05,14,01,08,14.70
2014,05,14,01,09,14.70
2014,05,14,01,10,14.60
2014,05,14,01,11,14.60
2014,05,14,01,12,14.60
2014,05,14,01,13,14.50
2014,05,14,01,14,14.50
2014,05,14,01,15,14.40
2014,05,14,01,16,14.40
2014,05,14,01,17,14.40
2014,05,14,01,18,14.30
2014,05,14,01,19,14.30
2014,05,14,01,20,14.30
2014,05,14,01,21,14.30
2014,05,14,01,22,14.20
2014,05,14,01,23,14.20
2014,05,14,01,24,14.20
2014,05,14,01,25,14.20
2014,05,14,01,26,14.10
2014,05,14,01,27,14.10
2014,05,14,01,28,14.00
2014,05,14,01,29,14.00
2014,05,14,01,30,14.00
2014,05,14,01,31,14.00
2014,05,14,01,32,14.00
2014,05,14,01,33,14.00
2014,05,14,01,34,13.90
2014,05,14,01,35,13.90
2014,05,14,01,36,13.90
2014,05,14,01,37,13.90
2014,05,14,01,38,13.80
2014,05,14,01,39,13.80
2014,05,14,01,40,13.80
2014,05,14,01,41,13.80
2014,05,14,01,42,13.70
2014,05,14,01,43,13.70
2014,05,14,01,44,13.70
2014,05,14,01,45,13.70
2014,05,14,01,46,13.70
2014,05,14,01,47,13.70
2014,05,14,01,48,13.70
2014,05,14,01,49,13.60
2014,05,14,01,50,13.60
2014,05,14,01,51,13.60
2014,05,14,01,52,13.50
2014,05,14,01,53,13.50
2014,05,14,01,54,13.40
2014,05,14,01,55,13.40
2014,05,14,01,56,13.40
2014,05,14,01,57,13.30
2014,05,14,01,58,13.30
2014,05,14,01,59,13.30
2014,05,14,02,00,13.30
2014,05,14,02,01,13.30
2014,05,14,02,02,13.30
2014,05,14,02,03,13.20
2014,05,14,02,04,13.20
2014,05,14,02,05,13.20
2014,05,14,02,06,13.20
2014,05,14,02,07,13.20
2014,05,14,02,08,13.20
2014,05,14,02,09,13.20
2014,05,14,02,10,13.10
2014,05,14,02,11,13.10
2014,05,14,02,12,13.10
2014,05,14,02,13,13.10
2014,05,14,02,14,13.10
2014,05,14,02,15,13.10
2014,05,14,02,16,13.00
2014,05,14,02,17,13.00
2014,05,14,02,18,13.00
2014,05,14,02,19,12.90
2014,05,14,02,20,12.90
2014,05,14,02,21,12.90
2014,05,14,02,22,12.90
2014,05,14,02,23,12.90
2014,05,14,02,24,12.90
2014,05,14,02,25,13.00
2014,05,14,02,26,13.00
2014,05,14,02,27,13.00
2014,05,14,02,28,13.00
2014,05,14,02,29,13.00
2014,05,14,02,30,13.00
2014,05,14,02,31,13.00
2014,05,14,02,32,12.90
2014,05,14,02,33,12.90
2014,05,14,02,34,12.90
2014,05,14,02,35,12.80
2014,05,14,02,36,12.80
2014,05,14,02,37,12.80
2014,05,14,02,38,12.80
2014,05,14,02,39,12.80
2014,05,14,02,40,12.70
2014,05,14,02,41,12.70
2014,05,14,02,42,12.70
2014,05,14,02,43,12.70
2014,05,14,02,44,12.70
2014,05,14,02,45,12.70
2014,05,14,02,46,12.70
2014,05,14,02,47,12.70
2014,05,14,02,48,12.70
2014,05,14,02,49,12.70
2014,05,14,02,50,12.70
2014,05,14,02,51,12.70
2014,05,14,02,52,12.70
2014,05,14,02,53,12.70
2014,05,14,02,54,12.70
2014,05,14,02,55,12.60
2014,05,14,02,56,12.60
2014,05,14,02,57,12.60
2014,05,14,02,58,12.60
2014,05,14,02,59,12.60
2014,05,14,03,00,12.60
2014,05,14,03,01,12.60
2014,05,14,03,02,12.50
2014,05,14,03,03,12.50
2014,05,14,03,04,12.50
2014,05,14,03,05,12.40
2014,05,14,03,06,12.40
2014,05,14,03,07,12.40
2014,05,14,03,08,12.40
2014,05,14,03,09,12.40
2014,05,14,03,10,12.40
2014,05,14,03,11,12.40
2014,05,14,03,12,12.40
2014,05,14,03,13,12.40
2014,05,14,03,14,12.40
2014,05,14,03,15,12.40
2014,05,14,03,16,12.40
2014,05,14,03,17,12.50
2014,05,14,03,18,12.50
2014,05,14,03,19,12.60
2014,05,14,03,20,12.60
2014,05,14,03,21,12.70
2014,05,14,03,22,12.70
2014,05,14,03,23,12.80
2014,05,14,03,24,12.80
2014,05,14,03,25,12.80
2014,05,14,03,26,12.80
2014,05,14,03,27,12.90
2014,05,14,03,28,12.90
2014,05,14,03,29,13.00
2014,05,14,03,30,13.00
2014,05,14,03,31,13.10
2014,05,14,03,32,13.10
2014,05,14,03,33,13.10
2014,05,14,03,34,13.10
2014,05,14,03,35,13.00
2014,05,14,03,36,13.00
2014,05,14,03,37,13.00
2014,05,14,03,38,13.00
2014,05,14,03,39,12.90
2014,05,14,03,40,12.90
2014,05,14,03,41,12.90
2014,05,14,03,42,12.90
2014,05,14,03,43,12.90
2014,05,14,03,44,12.90
2014,05,14,03,45,12.80
2014,05,14,03,46,12.80
2014,05,14,03,47,12.80
2014,05,14,03,48,12.80
2014,05,14,03,49,12.80
2014,05,14,03,50,12.80
2014,05,14,03,51,12.70
2014,05,14,03,52,12.70
2014,05,14,03,53,12.70
2014,05,14,03,54,12.70
2014,05,14,03,55,12.60
2014,05,14,03,56,12.60
2014,05,14,03,57,12.60
2014,05,14,03,58,12.60
2014,05,14,03,59,12.60
2014,05,14,04,00,12.60
2014,05,14,04,01,12.60
2014,05,14,04,02,12.60
2014,05,14,04,03,12.60
2014,05,14,04,04,12.60
2014,05,14,04,05,12.60
2014,05,14,04,06,12.60
2014,05,14,04,07,12.60
2014,05,14,04,08,12.60
2014,05,14,04,09,12.60
2014,05,14,04,10,12.60
2014,05,14,04,11,12.60
2014,05,14,04,12,12.60
2014,05,14,04,13,12.60
2014,05,14,04,14,12.60
2014,05,14,04,15,12.60
2014,05,14,04,16,12.60
2014,05,14,04,17,12.60
2014,05,14,04,18,12.70
2014,05,14,04,19,12.70
2014,05,14,04,20,12.70
2014,05,14,04,21,12.80
2014,05,14,04,22,12.90
2014,05,14,04,23,12.90
2014,05,14,04,24,13.00
2014,05,14,04,25,13.00
2014,05,14,04,26,13.00
2014,05,14,04,27,13.00
2014,05,14,04,28,13.10
2014,05,14,04,29,13.10
2014,05,14,04,30,13.20
2014,05,14,04,31,13.20
2014,05,14,04,32,13.30
2014,05,14,04,33,13.30
2014,05,14,04,34,13.30
2014,05,14,04,35,13.30
2014,05,14,04,36,13.30
2014,05,14,04,37,13.40
2014,05,14,04,38,13.40
2014,05,14,04,39,13.50
2014,05,14,04,40,13.50
2014,05,14,04,41,13.60
2014,05,14,04,42,13.60
2014,05,14,04,43,13.70
2014,05,14,04,44,13.70
2014,05,14,04,45,13.80
2014,05,14,04,46,13.80
2014,05,14,04,47,13.80
2014,05,14,04,48,13.80
2014,05,14,04,49,13.90
2014,05,14,04,50,13.90
2014,05,14,04,51,13.90
2014,05,14,04,52,13.90
2014,05,14,04,53,13.80
2014,05,14,04,54,13.80
2014,05,14,04,55,13.80
2014,05,14,04,56,13.80
2014,05,14,04,57,13.80
2014,05,14,04,58,13.80
2014,05,14,04,59,13.80
2014,05,14,05,00,13.70
2014,05,14,05,01,13.70
2014,05,14,05,02,13.70
2014,05,14,05,03,13.70
2014,05,14,05,04,13.60
2014,05,14,05,05,13.60
2014,05,14,05,06,13.50
2014,05,14,05,07,13.40
2014,05,14,05,08,13.40
2014,05,14,05,09,13.40
2014,05,14,05,10,13.40
2014,05,14,05,11,13.40
2014,05,14,05,12,13.30
2014,05,14,05,13,13.40
2014,05,14,05,14,13.40
2014,05,14,05,15,13.30
2014,05,14,05,16,13.40
2014,05,14,05,17,13.40
2014,05,14,05,18,13.40
2014,05,14,05,19,13.40
2014,05,14,05,20,13.50
2014,05,14,05,21,13.50
2014,05,14,05,22,13.50
2014,05,14,05,23,13.50
2014,05,14,05,24,13.40
2014,05,14,05,25,13.50
2014,05,14,05,26,13.50
2014,05,14,05,27,13.50
2014,05,14,05,28,13.60
2014,05,14,05,29,13.60
2014,05,14,05,30,13.60
2014,05,14,05,31,13.50
2014,05,14,05,32,13.50
2014,05,14,05,33,13.40
2014,05,14,05,34,13.40
2014,05,14,05,35,13.30
2014,05,14,05,36,13.30
2014,05,14,05,37,13.20
2014,05,14,05,38,13.20
2014,05,14,05,39,13.10
2014,05,14,05,40,13.00
2014,05,14,05,41,13.00
2014,05,14,05,42,12.90
2014,05,14,05,43,12.80
2014,05,14,05,44,12.80
2014,05,14,05,45,12.70
2014,05,14,05,46,12.70
2014,05,14,05,47,12.70
2014,05,14,05,48,12.60
2014,05,14,05,49,12.60
2014,05,14,05,50,12.50
2014,05,14,05,51,12.50
2014,05,14,05,52,12.40
2014,05,14,05,53,12.40
2014,05,14,05,54,12.40
2014,05,14,05,55,12.40
2014,05,14,05,56,12.40
2014,05,14,05,57,12.40
2014,05,14,05,58,12.40
2014,05,14,05,59,12.40
2014,05,14,06,00,12.30
2014,05,14,06,01,12.30
2014,05,14,06,02,12.30
2014,05,14,06,03,12.30
2014,05,14,06,04,12.30
2014,05,14,06,05,12.30
2014,05,14,06,06,12.30
2014,05,14,06,07,12.30
2014,05,14,06,08,12.30
2014,05,14,06,09,12.30
2014,05,14,06,10,12.30
2014,05,14,06,11,12.30
2014,05,14,06,12,12.30
2014,05,14,06,13,12.20
2014,05,14,06,14,12.20
2014,05,14,06,15,12.20
2014,05,14,06,16,12.20
2014,05,14,06,17,12.20
2014,05,14,06,18,12.20
2014,05,14,06,19,12.20
2014,05,14,06,20,12.20
2014,05,14,06,21,12.20
2014,05,14,06,22,12.30
2014,05,14,06,23,12.30
2014,05,14,06,24,12.30
2014,05,14,06,25,12.40
2014,05,14,06,26,12.40
2014,05,14,06,27,12.50
2014,05,14,06,28,12.60
2014,05,14,06,29,12.70
2014,05,14,06,30,12.70
2014,05,14,06,31,12.70
2014,05,14,06,32,12.80
2014,05,14,06,33,12.80
2014,05,14,06,34,12.90
2014,05,14,06,35,12.90
2014,05,14,06,36,13.00
2014,05,14,06,37,13.10
2014,05,14,06,38,13.20
2014,05,14,06,39,13.20
2014,05,14,06,40,13.30
2014,05,14,06,41,13.40
2014,05,14,06,42,13.50
2014,05,14,06,43,13.60
2014,05,14,06,44,13.70
2014,05,14,06,45,13.80
2014,05,14,06,46,13.90
2014,05,14,06,47,13.90
2014,05,14,06,48,14.00
2014,05,14,06,49,14.10
2014,05,14,06,50,14.20
2014,05,14,06,51,14.20
2014,05,14,06,52,14.20
2014,05,14,06,53,14.30
2014,05,14,06,54,14.30
2014,05,14,06,55,14.30
2014,05,14,06,56,14.30
2014,05,14,06,57,14.40
2014,05,14,06,58,14.40
2014,05,14,06,59,14.40
2014,05,14,07,00,14.50
2014,05,14,07,01,14.50
2014,05,14,07,02,14.50
2014,05,14,07,03,14.50
2014,05,14,07,04,14.60
2014,05,14,07,05,14.60
2014,05,14,07,06,14.60
2014,05,14,07,07,14.70
2014,05,14,07,08,14.70
2014,05,14,07,09,14.80
2014,05,14,07,10,14.80
2014,05,14,07,11,14.80
2014,05,14,07,12,14.90
2014,05,14,07,13,14.90
2014,05,14,07,14,15.00
2014,05,14,07,15,15.00
2014,05,14,07,16,15.00
2014,05,14,07,17,15.10
2014,05,14,07,18,15.10
2014,05,14,07,19,15.20
2014,05,14,07,20,15.20
2014,05,14,07,21,15.20
2014,05,14,07,22,15.20
2014,05,14,07,23,15.20
2014,05,14,07,24,15.20
2014,05,14,07,25,15.20
2014,05,14,07,26,15.20
2014,05,14,07,27,15.30
2014,05,14,07,28,15.40
2014,05,14,07,29,15.40
2014,05,14,07,30,15.50
2014,05,14,07,31,15.60
2014,05,14,07,32,15.60
2014,05,14,07,33,15.60
2014,05,14,07,34,15.70
2014,05,14,07,35,15.70
2014,05,14,07,36,15.70
2014,05,14,07,37,15.70
2014,05,14,07,38,15.80
2014,05,14,07,39,15.80
2014,05,14,07,40,15.80
2014,05,14,07,41,15.80
2014,05,14,07,42,15.90
2014,05,14,07,43,15.90
2014,05,14,07,44,15.90
2014,05,14,07,45,15.90
2014,05,14,07,46,16.00
2014,05,14,07,47,16.00
2014,05,14,07,48,16.10
2014,05,14,07,49,16.10
2014,05,14,07,50,16.10
2014,05,14,07,51,16.10
2014,05,14,07,52,16.10
2014,05,14,07,53,16.20
2014,05,14,07,54,16.20
2014,05,14,07,55,16.20
2014,05,14,07,56,16.30
2014,05,14,07,57,16.30
2014,05,14,07,58,16.30
2014,05,14,07,59,16.40
2014,05,14,08,00,16.40
2014,05,14,08,01,16.40
2014,05,14,08,02,16.50
2014,05,14,08,03,16.50
2014,05,14,08,04,16.60
2014,05,14,08,05,16.60
2014,05,14,08,06,16.70
2014,05,14,08,07,16.70
2014,05,14,08,08,16.70
2014,05,14,08,09,16.80
2014,05,14,08,10,16.80
2014,05,14,08,11,16.80
2014,05,14,08,12,16.80
2014,05,14,08,13,16.80
2014,05,14,08,14,16.90
2014,05,14,08,15,16.90
2014,05,14,08,16,16.90
2014,05,14,08,17,16.90
2014,05,14,08,18,16.90
2014,05,14,08,19,16.90
2014,05,14,08,20,16.90
2014,05,14,08,21,17.00
2014,05,14,08,22,16.90
2014,05,14,08,23,16.90
2014,05,14,08,24,16.90
2014,05,14,08,25,16.90
2014,05,14,08,26,17.00
2014,05,14,08,27,17.00
2014,05,14,08,28,17.00
2014,05,14,08,29,17.00
2014,05,14,08,30,17.10
2014,05,14,08,31,17.10
2014,05,14,08,32,17.10
2014,05,14,08,33,17.20
2014,05,14,08,34,17.20
2014,05,14,08,35,17.20
2014,05,14,08,36,17.30
2014,05,14,08,37,17.30
2014,05,14,08,38,17.30
2014,05,14,08,39,17.30
2014,05,14,08,40,17.30
2014,05,14,08,41,17.30
2014,05,14,08,42,17.30
2014,05,14,08,43,17.30
2014,05,14,08,44,17.30
2014,05,14,08,45,17.40
2014,05,14,08,46,17.40
2014,05,14,08,47,17.50
2014,05,14,08,48,17.50
2014,05,14,08,49,17.50
2014,05,14,08,50,17.60
2014,05,14,08,51,17.70
2014,05,14,08,52,17.70
2014,05,14,08,53,17.70
2014,05,14,08,54,17.70
2014,05,14,08,55,17.60
2014,05,14,08,56,17.70
2014,05,14,08,57,17.70
2014,05,14,08,58,17.70
2014,05,14,08,59,17.70
2014,05,14,09,00,17.80
2014,05,14,09,01,17.80
2014,05,14,09,02,17.80
2014,05,14,09,03,17.70
2014,05,14,09,04,17.70
2014,05,14,09,05,17.70
2014,05,14,09,06,17.70
2014,05,14,09,07,17.70
2014,05,14,09,08,17.70
2014,05,14,09,09,17.70
2014,05,14,09,10,17.80
2014,05,14,09,11,17.80
2014,05,14,09,12,17.80
2014,05,14,09,13,17.80
2014,05,14,09,14,17.80
2014,05,14,09,15,17.80
2014,05,14,09,16,17.90
2014,05,14,09,17,17.80
2014,05,14,09,18,17.80
2014,05,14,09,19,17.80
2014,05,14,09,20,17.80
2014,05,14,09,21,17.80
2014,05,14,09,22,17.80
2014,05,14,09,23,17.90
2014,05,14,09,24,17.90
2014,05,14,09,25,18.00
2014,05,14,09,26,18.00
2014,05,14,09,27,18.10
2014,05,14,09,28,18.10
2014,05,14,09,29,18.10
2014,05,14,09,30,18.10
2014,05,14,09,31,18.10
2014,05,14,09,32,18.20
2014,05,14,09,33,18.20
2014,05,14,09,34,18.30
2014,05,14,09,35,18.30
2014,05,14,09,36,18.30
2014,05,14,09,37,18.30
2014,05,14,09,38,18.40
2014,05,14,09,39,18.40
2014,05,14,09,40,18.40
2014,05,14,09,41,18.40
2014,05,14,09,42,18.50
2014,05,14,09,43,18.50
2014,05,14,09,44,18.60
2014,05,14,09,45,18.70
2014,05,14,09,46,18.80
2014,05,14,09,47,18.80
2014,05,14,09,48,18.80
2014,05,14,09,49,18.80
2014,05,14,09,50,18.90
2014,05,14,09,51,18.90
2014,05,14,09,52,19.00
2014,05,14,09,53,19.00
2014,05,14,09,54,19.10
2014,05,14,09,55,19.10
2014,05,14,09,56,19.10
2014,05,14,09,57,19.20
2014,05,14,09,58,19.20
2014,05,14,09,59,19.20
2014,05,14,10,00,19.20
2014,05,14,10,01,19.20
2014,05,14,10,02,19.20
2014,05,14,10,03,19.30
2014,05,14,10,04,19.30
2014,05,14,10,05,19.30
2014,05,14,10,06,19.40
2014,05,14,10,07,19.40
2014,05,14,10,08,19.50
2014,05,14,10,09,19.60
2014,05,14,10,10,19.70
2014,05,14,10,11,19.70
2014,05,14,10,12,19.70
2014,05,14,10,13,19.60
2014,05,14,10,14,19.60
2014,05,14,10,15,19.60
2014,05,14,10,16,19.50
2014,05,14,10,17,19.50
2014,05,14,10,18,19.50
2014,05,14,10,19,19.50
2014,05,14,10,20,19.50
2014,05,14,10,21,19.50
2014,05,14,10,22,19.50
2014,05,14,10,23,19.50
2014,05,14,10,24,19.50
2014,05,14,10,25,19.50
2014,05,14,10,26,19.50
2014,05,14,10,27,19.60
2014,05,14,10,28,19.60
2014,05,14,10,29,19.70
2014,05,14,10,30,19.80
2014,05,14,10,31,19.80
2014,05,14,10,32,19.80
2014,05,14,10,33,19.80
2014,05,14,10,34,19.90
2014,05,14,10,35,19.90
2014,05,14,10,36,19.90
2014,05,14,10,37,19.90
2014,05,14,10,38,20.00
2014,05,14,10,39,20.00
2014,05,14,10,40,20.00
2014,05,14,10,41,20.00
2014,05,14,10,42,19.90
2014,05,14,10,43,19.90
2014,05,14,10,44,20.00
2014,05,14,10,45,20.10
2014,05,14,10,46,20.20
2014,05,14,10,47,20.20
2014,05,14,10,48,20.30
2014,05,14,10,49,20.40
2014,05,14,10,50,20.50
2014,05,14,10,51,20.60
2014,05,14,10,52,20.60
2014,05,14,10,53,20.70
2014,05,14,10,54,20.70
2014,05,14,10,55,20.70
2014,05,14,10,56,20.70
2014,05,14,10,57,20.80
2014,05,14,10,58,20.80
2014,05,14,10,59,20.80
2014,05,14,11,00,20.80
2014,05,14,11,01,20.80
2014,05,14,11,02,20.80
2014,05,14,11,03,20.90
2014,05,14,11,04,20.90
2014,05,14,11,05,20.90
2014,05,14,11,06,21.00
2014,05,14,11,07,21.00
2014,05,14,11,08,21.00
2014,05,14,11,09,21.10
2014,05,14,11,10,21.10
2014,05,14,11,11,21.10
2014,05,14,11,12,21.10
2014,05,14,11,13,21.10
2014,05,14,11,14,21.10
2014,05,14,11,15,21.00
2014,05,14,11,16,20.90
2014,05,14,11,17,20.90
2014,05,14,11,18,20.80
2014,05,14,11,19,20.80
2014,05,14,11,20,20.80
2014,05,14,11,21,20.80
2014,05,14,11,22,20.80
2014,05,14,11,23,20.80
2014,05,14,11,24,20.80
2014,05,14,11,25,20.90
2014,05,14,11,26,20.90
2014,05,14,11,27,21.00
2014,05,14,11,28,21.00
2014,05,14,11,29,21.00
2014,05,14,11,30,21.10
2014,05,14,11,31,21.10
2014,05,14,11,32,21.00
2014,05,14,11,33,21.00
2014,05,14,11,34,20.90
2014,05,14,11,35,21.00
2014,05,14,11,36,21.00
2014,05,14,11,37,21.10
2014,05,14,11,38,21.00
2014,05,14,11,39,21.00
2014,05,14,11,40,20.90
2014,05,14,11,41,20.90
2014,05,14,11,42,20.90
2014,05,14,11,43,20.90
2014,05,14,11,44,20.80
2014,05,14,11,45,20.80
2014,05,14,11,46,20.80
2014,05,14,11,47,20.80
2014,05,14,11,48,21.00
2014,05,14,11,49,21.10
2014,05,14,11,50,21.20
2014,05,14,11,51,21.20
2014,05,14,11,52,21.30
2014,05,14,11,53,21.30
2014,05,14,11,54,21.40
2014,05,14,11,55,21.40
2014,05,14,11,56,21.40
2014,05,14,11,57,21.30
2014,05,14,11,58,21.30
2014,05,14,11,59,21.30
2014,05,14,12,00,21.20
2014,05,14,12,01,21.20
2014,05,14,12,02,21.20
2014,05,14,12,03,21.30
2014,05,14,12,04,21.30
2014,05,14,12,05,21.40
2014,05,14,12,06,21.50
2014,05,14,12,07,21.60
2014,05,14,12,08,21.60
2014,05,14,12,09,21.70
2014,05,14,12,10,21.70
2014,05,14,12,11,21.80
2014,05,14,12,12,21.80
2014,05,14,12,13,21.80
2014,05,14,12,14,21.90
2014,05,14,12,15,21.90
2014,05,14,12,16,21.80
2014,05,14,12,17,21.80
2014,05,14,12,18,21.80
2014,05,14,12,19,21.70
2014,05,14,12,20,21.60
2014,05,14,12,21,21.60
2014,05,14,12,22,21.60
2014,05,14,12,23,21.60
2014,05,14,12,24,21.70
2014,05,14,12,25,21.70
2014,05,14,12,26,21.70
2014,05,14,12,27,21.70
2014,05,14,12,28,21.70
2014,05,14,12,29,21.70
2014,05,14,12,30,21.80
2014,05,14,12,31,21.80
2014,05,14,12,32,21.80
2014,05,14,12,33,21.80
2014,05,14,12,34,21.80
2014,05,14,12,35,21.80
2014,05,14,12,36,21.70
2014,05,14,12,37,21.70
2014,05,14,12,38,21.70
2014,05,14,12,39,21.70
2014,05,14,12,40,21.80
2014,05,14,12,41,21.80
2014,05,14,12,42,21.90
2014,05,14,12,43,21.90
2014,05,14,12,44,21.90
2014,05,14,12,45,22.00
2014,05,14,12,46,22.00
2014,05,14,12,47,22.10
2014,05,14,12,48,22.10
2014,05,14,12,49,22.20
2014,05,14,12,50,22.20
2014,05,14,12,51,22.20
2014,05,14,12,52,22.20
2014,05,14,12,53,22.20
2014,05,14,12,54,22.20
2014,05,14,12,55,22.20
2014,05,14,12,56,22.20
2014,05,14,12,57,22.20
2014,05,14,12,58,22.20
2014,05,14,12,59,22.20
2014,05,14,13,00,22.20
2014,05,14,13,01,22.20
2014,05,14,13,02,22.10
2014,05,14,13,03,22.10
2014,05,14,13,04,22.20
2014,05,14,13,05,22.20
2014,05,14,13,06,22.30
2014,05,14,13,07,22.30
2014,05,14,13,08,22.30
2014,05,14,13,09,22.40
2014,05,14,13,10,22.40
2014,05,14,13,11,22.40
2014,05,14,13,12,22.40
2014,05,14,13,13,22.50
2014,05,14,13,14,22.50
2014,05,14,13,15,22.50
2014,05,14,13,16,22.60
2014,05,14,13,17,22.60
2014,05,14,13,18,22.60
2014,05,14,13,19,22.60
2014,05,14,13,20,22.60
2014,05,14,13,21,22.60
2014,05,14,13,22,22.70
2014,05,14,13,23,22.80
2014,05,14,13,24,22.90
2014,05,14,13,25,23.10
2014,05,14,13,26,23.20
2014,05,14,13,27,23.30
2014,05,14,13,28,23.30
2014,05,14,13,29,23.20
2014,05,14,13,30,23.20
2014,05,14,13,31,23.30
2014,05,14,13,32,23.40
2014,05,14,13,33,23.40
2014,05,14,13,34,23.40
2014,05,14,13,35,23.40
2014,05,14,13,36,23.50
2014,05,14,13,37,23.50
2014,05,14,13,38,23.60
2014,05,14,13,39,23.70
2014,05,14,13,40,23.70
2014,05,14,13,41,23.80
2014,05,14,13,42,23.80
2014,05,14,13,43,23.80
2014,05,14,13,44,23.80
2014,05,14,13,45,23.80
2014,05,14,13,46,23.80
2014,05,14,13,47,23.80
2014,05,14,13,48,23.70
2014,05,14,13,49,23.60
2014,05,14,13,50,23.60
2014,05,14,13,51,23.60
2014,05,14,13,52,23.70
2014,05,14,13,53,23.80
2014,05,14,13,54,23.80
2014,05,14,13,55,23.90
2014,05,14,13,56,24.00
2014,05,14,13,57,24.00
2014,05,14,13,58,23.90
2014,05,14,13,59,23.90
2014,05,14,14,00,23.90
2014,05,14,14,01,23.80
2014,05,14,14,02,23.70
2014,05,14,14,03,23.60
2014,05,14,14,04,23.60
2014,05,14,14,05,23.60
2014,05,14,14,06,23.70
2014,05,14,14,07,23.80
2014,05,14,14,08,23.80
2014,05,14,14,09,23.90
2014,05,14,14,10,23.90
2014,05,14,14,11,24.10
2014,05,14,14,12,24.20
2014,05,14,14,13,24.40
2014,05,14,14,14,24.50
2014,05,14,14,15,24.70
2014,05,14,14,16,24.80
2014,05,14,14,17,24.90
2014,05,14,14,18,25.00
2014,05,14,14,19,25.10
2014,05,14,14,20,25.00
2014,05,14,14,21,24.90
2014,05,14,14,22,24.80
2014,05,14,14,23,24.70
2014,05,14,14,24,24.60
2014,05,14,14,25,24.50
2014,05,14,14,26,24.40
2014,05,14,14,27,24.30
2014,05,14,14,28,24.30
2014,05,14,14,29,24.20
2014,05,14,14,30,24.10
2014,05,14,14,31,24.00
2014,05,14,14,32,24.00
2014,05,14,14,33,23.90
2014,05,14,14,34,23.80
2014,05,14,14,35,23.70
2014,05,14,14,36,23.60
2014,05,14,14,37,23.50
2014,05,14,14,38,23.30
2014,05,14,14,39,23.20
2014,05,14,14,40,23.20
2014,05,14,14,41,23.20
2014,05,14,14,42,23.20
2014,05,14,14,43,23.20
2014,05,14,14,44,23.20
2014,05,14,14,45,23.30
2014,05,14,14,46,23.40
2014,05,14,14,47,23.40
2014,05,14,14,48,23.40
2014,05,14,14,49,23.50
2014,05,14,14,50,23.50
2014,05,14,14,51,23.60
2014,05,14,14,52,23.70
2014,05,14,14,53,23.70
2014,05,14,14,54,23.80
2014,05,14,14,55,23.80
2014,05,14,14,56,23.80
2014,05,14,14,57,23.80
2014,05,14,14,58,23.80
2014,05,14,14,59,23.90
2014,05,14,15,00,23.90
2014,05,14,15,01,23.90
2014,05,14,15,02,23.90
2014,05,14,15,03,24.00
2014,05,14,15,04,24.10
2014,05,14,15,05,24.20
2014,05,14,15,06,24.20
2014,05,14,15,07,24.30
2014,05,14,15,08,24.30
2014,05,14,15,09,24.30
2014,05,14,15,10,24.30
2014,05,14,15,11,24.30
2014,05,14,15,12,24.30
2014,05,14,15,13,24.40
2014,05,14,15,14,24.40
2014,05,14,15,15,24.40
2014,05,14,15,16,24.40
2014,05,14,15,17,24.50
2014,05,14,15,18,24.50
2014,05,14,15,19,24.60
2014,05,14,15,20,24.60
2014,05,14,15,21,24.70
2014,05,14,15,22,24.70
2014,05,14,15,23,24.60
2014,05,14,15,24,24.60
2014,05,14,15,25,24.60
2014,05,14,15,26,24.70
2014,05,14,15,27,24.70
2014,05,14,15,28,24.80
2014,05,14,15,29,24.90
2014,05,14,15,30,25.00
2014,05,14,15,31,25.10
2014,05,14,15,32,25.00
2014,05,14,15,33,25.00
2014,05,14,15,34,24.90
2014,05,14,15,35,24.80
2014,05,14,15,36,24.80
2014,05,14,15,37,24.80
2014,05,14,15,38,24.80
2014,05,14,15,39,24.80
2014,05,14,15,40,24.80
2014,05,14,15,41,24.80
2014,05,14,15,42,24.80
2014,05,14,15,43,24.80
2014,05,14,15,44,24.80
2014,05,14,15,45,24.90
2014,05,14,15,46,24.90
2014,05,14,15,47,24.90
2014,05,14,15,48,24.90
2014,05,14,15,49,24.90
2014,05,14,15,50,24.90
2014,05,14,15,51,25.00
2014,05,14,15,52,25.10
2014,05,14,15,53,25.10
2014,05,14,15,54,25.10
2014,05,14,15,55,25.10
2014,05,14,15,56,25.20
2014,05,14,15,57,25.20
2014,05,14,15,58,25.20
2014,05,14,15,59,25.20
2014,05,14,16,00,25.10
2014,05,14,16,01,25.10
2014,05,14,16,02,25.00
2014,05,14,16,03,25.00
2014,05,14,16,04,24.90
2014,05,14,16,05,24.90
2014,05,14,16,06,24.80
2014,05,14,16,07,24.80
2014,05,14,16,08,24.70
2014,05,14,16,09,24.70
2014,05,14,16,10,24.70
2014,05,14,16,11,24.60
2014,05,14,16,12,24.60
2014,05,14,16,13,24.60
2014,05,14,16,14,24.70
2014,05,14,16,15,24.70
2014,05,14,16,16,24.70
2014,05,14,16,17,24.70
2014,05,14,16,18,24.60
2014,05,14,16,19,24.60
2014,05,14,16,20,24.60
2014,05,14,16,21,24.60
2014,05,14,16,22,24.70
2014,05,14,16,23,24.70
2014,05,14,16,24,24.80
2014,05,14,16,25,24.90
2014,05,14,16,26,25.00
2014,05,14,16,27,25.00
2014,05,14,16,28,25.00
2014,05,14,16,29,25.00
2014,05,14,16,30,25.00
2014,05,14,16,31,24.90
2014,05,14,16,32,24.80
2014,05,14,16,33,24.70
2014,05,14,16,34,24.70
2014,05,14,16,35,24.60
2014,05,14,16,36,24.60
2014,05,14,16,37,24.60
2014,05,14,16,38,24.60
2014,05,14,16,39,24.60
2014,05,14,16,40,24.50
2014,05,14,16,41,24.50
2014,05,14,16,42,24.40
2014,05,14,16,43,24.30
2014,05,14,16,44,24.30
2014,05,14,16,45,24.30
2014,05,14,16,46,24.30
2014,05,14,16,47,24.30
2014,05,14,16,48,24.30
2014,05,14,16,49,24.30
2014,05,14,16,50,24.30
2014,05,14,16,51,24.40
2014,05,14,16,52,24.50
2014,05,14,16,53,24.50
2014,05,14,16,54,24.60
2014,05,14,16,55,24.70
2014,05,14,16,56,24.70
2014,05,14,16,57,24.70
2014,05,14,16,58,24.70
2014,05,14,16,59,24.70
2014,05,14,17,00,24.70
2014,05,14,17,01,24.70
2014,05,14,17,02,24.80
2014,05,14,17,03,24.80
2014,05,14,17,04,24.90
2014,05,14,17,05,25.00
2014,05,14,17,06,25.00
2014,05,14,17,07,25.10
2014,05,14,17,08,25.10
2014,05,14,17,09,25.10
2014,05,14,17,10,25.10
2014,05,14,17,11,25.10
2014,05,14,17,12,25.20
2014,05,14,17,13,25.20
2014,05,14,17,14,25.10
2014,05,14,17,15,25.10
2014,05,14,17,16,25.10
2014,05,14,17,17,25.10
2014,05,14,17,18,25.10
2014,05,14,17,19,25.20